DW3478 Weather Reports


time (UTC)temp
C
wind
direction
speed
KPH
gust
KPH
rain 1hr
cm
rain 24hr
cm
rain mn
cm
humidity
%
barometer
mb
20260510131306 17 306 11.3 19.3 0.00 0.08 0.08 67 1012.6
20260510125805 16 265 8.0 12.9 0.00 0.08 0.08 72 1012.6
20260510125307 17 236 6.4 14.5 0.00 0.08 0.08 70 1012.7
20260510124805 16 264 8.0 11.3 0.00 0.08 0.08 71 1012.7
20260510124306 16 230 4.8 16.1 0.00 0.08 0.08 70 1012.8
20260510123805 17 227 8.0 11.3 0.00 0.08 0.08 71 1012.9
20260510123305 17 280 4.8 11.3 0.00 0.08 0.08 68 1012.9
20260510120306 17 250 6.4 16.1 0.00 0.08 0.08 70 1012.9
20260510113806 17 291 4.8 11.3 0.00 0.08 0.08 75 1012.9
20260510112306 16 287 4.8 14.5 0.00 0.08 0.08 77 1012.9
20260510111305 16 340 3.2 14.5 0.00 0.08 0.08 73 1012.9
20260510110806 16 260 3.2 11.3 0.00 0.08 0.08 75 1012.8
20260510105805 16 281 3.2 9.7 0.00 0.08 0.08 78 1013.1
20260510104805 16 299 3.2 4.8 0.03 0.08 0.08 81 1012.9
20260510103305 15 330 0.0 3.2 0.08 0.08 0.08 86 1012.9
20260510102806 14 257 1.6 4.8 0.08 0.08 0.08 85 1012.8
20260510102306 14 5 0.0 3.2 0.08 0.08 0.08 86 1012.8
20260510100805 13 26 3.2 4.8 0.08 0.08 0.08 89 1012.8
20260510095805 13 338 1.6 4.8 0.08 0.08 0.08 84 1012.8
20260510094305 14 297 4.8 11.3 0.05 0.05 0.05 80 1012.7
20260510093805 14 327 4.8 20.9 0.03 0.03 0.03 78 1012.7
20260510092805 15 291 3.2 9.7 0.00 0.00 0.00 73 1012.5
20260510091305 15 312 3.2 4.8 0.00 0.00 0.00 74 1012.5
20260510090805 15 294 3.2 8.0 0.00 0.00 0.00 75 1012.5
20260510082805 14 328 3.2 4.8 0.00 0.00 0.00 74 1012.3
20260510081305 13 304 3.2 9.7 0.00 0.00 0.00 75 1012.2
20260510080806 13 317 3.2 9.7 0.00 0.00 0.00 76 1012.2
20260510080305 13 275 1.6 9.7 0.00 0.00 0.00 77 1012.1
20260510075805 13 311 3.2 9.7 0.00 0.00 0.00 77 1012.1
20260510075306 13 293 1.6 4.8 0.00 0.00 0.00 77 1012.1
20260510074805 13 294 1.6 8.0 0.00 0.00 0.00 78 1012.0
20260510074305 13 316 1.6 4.8 0.00 0.00 0.00 77 1011.8
20260510073805 13 290 3.2 8.0 0.00 0.00 0.00 76 1012.1
20260510073306 13 312 1.6 8.0 0.00 0.00 0.00 76 1012.0
20260510072805 13 331 1.6 4.8 0.00 0.00 0.00 77 1012.0
20260510072306 13 283 1.6 4.8 0.00 0.00 0.00 79 1011.9
20260510070805 12 294 1.6 4.8 0.00 0.00 0.00 80 1011.7
20260510070305 12 324 1.6 8.0 0.00 0.00 0.00 80 1011.8
20260510065805 12 333 0.0 4.8 0.00 0.00 0.00 80 1011.7
20260510063806 12 298 1.6 3.2 0.00 0.00 0.00 79 1011.7
20260510061805 12 357 1.6 4.8 0.00 0.00 0.00 79 1011.5
20260510061305 12 312 1.6 4.8 0.00 0.00 0.00 80 1011.3
20260510054304 12 306 4.8 8.0 0.00 0.00 0.00 83 1010.9
20260510051805 12 302 1.6 8.0 0.00 0.00 0.00 84 1011.0
20260510051305 12 338 3.2 8.0 0.00 0.00 0.00 83 1011.0
20260510050804 12 295 1.6 9.7 0.00 0.00 0.00 83 1010.9
20260510050305 12 277 1.6 8.0 0.00 0.00 0.00 83 1010.8
20260510045804 12 333 1.6 9.7 0.00 0.00 0.00 83 1010.9
20260510045306 12 313 1.6 4.8 0.00 0.00 0.00 83 1010.9
20260510044304 12 214 1.6 9.7 0.00 0.00 0.00 82 1010.9
20260510043805 12 327 1.6 4.8 0.00 0.00 0.00 82 1011.0
20260510042805 12 356 3.2 9.7 0.00 0.00 0.00 82 1010.9
20260510042307 12 310 3.2 8.0 0.00 0.00 0.00 82 1010.8
20260510041805 12 339 1.6 8.0 0.00 0.00 0.00 81 1010.9
20260510034805 12 286 3.2 8.0 0.00 0.00 0.00 80 1010.9
20260510034305 12 335 3.2 9.7 0.00 0.00 0.00 80 1010.7
20260510033305 12 328 1.6 4.8 0.00 0.00 0.00 79 1010.8
20260510032805 12 322 3.2 9.7 0.00 0.00 0.00 79 1010.7
20260510032306 12 324 3.2 16.1 0.00 0.00 0.00 79 1010.7
20260510031805 12 317 3.2 9.7 0.00 0.00 0.00 79 1010.8
20260510031305 12 324 3.2 11.3 0.00 0.00 0.00 79 1010.8
20260510023305 12 293 3.2 16.1 0.00 0.03 0.00 79 1011.0
20260510021805 12 324 1.6 14.5 0.00 0.03 0.00 80 1011.0
20260510020805 12 298 3.2 9.7 0.00 0.05 0.00 81 1011.1
20260510015805 12 23 1.6 4.8 0.00 0.05 0.00 82 1011.1
20260510015306 12 319 4.8 14.5 0.00 0.05 0.00 82 1011.1
20260510014305 12 337 3.2 8.0 0.00 0.05 0.00 82 1011.2
20260510011805 12 340 1.6 8.0 0.00 0.05 0.00 82 1011.1
20260510010804 12 315 1.6 8.0 0.00 0.05 0.00 82 1011.3
20260510010305 12 0 3.2 8.0 0.00 0.05 0.00 82 1011.3
20260510005306 12 289 1.6 8.0 0.00 0.05 0.00 82 1011.2
20260510004804 12 303 3.2 8.0 0.00 0.05 0.00 82 1011.3
20260510003805 12 348 3.2 11.3 0.00 0.05 0.00 82 1011.2
20260510002804 13 350 3.2 11.3 0.00 0.05 0.00 82 1011.3
20260510002306 13 344 3.2 9.7 0.00 0.05 0.00 82 1011.4
20260510001805 13 308 3.2 9.7 0.00 0.05 0.00 82 1011.5
20260509235805 13 325 3.2 14.5 0.00 0.05 0.00 80 1011.4
20260509231805 13 287 1.6 4.8 0.00 0.13 0.00 81 1011.3
20260509225805 13 332 3.2 9.7 0.00 0.13 0.13 81 1011.3
20260509225306 13 322 3.2 9.7 0.00 0.13 0.13 81 1011.2
20260509222804 13 309 4.8 11.3 0.00 0.13 0.13 79 1011.4
20260509222307 13 339 3.2 9.7 0.00 0.13 0.13 80 1011.4
20260509220804 13 319 3.2 8.0 0.00 0.13 0.13 78 1011.5
20260509220304 13 319 3.2 8.0 0.00 0.13 0.13 79 1011.4
20260509215804 13 324 3.2 8.0 0.00 0.13 0.13 79 1011.4
20260509205805 13 321 1.6 9.7 0.00 0.13 0.13 80 1010.9
20260509205307 13 330 3.2 9.7 0.00 0.13 0.13 81 1010.9
20260509204804 13 316 3.2 4.8 0.00 0.13 0.13 81 1010.6
20260509204304 13 310 1.6 9.7 0.00 0.13 0.13 81 1010.7
20260509203805 13 333 3.2 11.3 0.00 0.13 0.13 81 1010.3
20260509203304 13 326 3.2 9.7 0.00 0.13 0.13 82 1010.6
20260509202306 14 311 4.8 16.1 0.00 0.13 0.13 82 1010.5
20260509201805 14 305 4.8 14.5 0.00 0.13 0.13 82 1010.6
20260509201305 14 302 3.2 16.1 0.00 0.13 0.13 82 1010.5
20260509200304 14 301 3.2 8.0 0.00 0.13 0.13 81 1010.6
20260509195805 14 320 3.2 11.3 0.00 0.13 0.13 81 1010.6
20260509195306 14 323 3.2 9.7 0.00 0.13 0.13 80 1010.6
20260509194805 14 297 4.8 14.5 0.00 0.13 0.13 80 1010.6
20260509185306 15 297 3.2 11.3 0.00 0.13 0.13 78 1010.2
20260509184804 15 283 4.8 11.3 0.00 0.13 0.13 78 1009.9
20260509184304 15 317 4.8 11.3 0.00 0.13 0.13 79 1009.8
20260509182805 15 318 4.8 8.0 0.00 0.13 0.13 80 1009.9
20260509182306 15 299 3.2 9.7 0.00 0.13 0.13 81 1009.9
20260509181805 15 307 4.8 19.3 0.00 0.13 0.13 82 1010.0
20260509180805 15 310 4.8 16.1 0.00 0.23 0.13 87 1010.0
20260509172804 16 301 4.8 11.3 0.00 0.36 0.13 79 1009.3
20260509163804 16 297 4.8 12.9 0.00 0.36 0.13 78 1009.6
20260509162804 17 305 4.8 16.1 0.00 0.36 0.13 77 1009.5
20260509161305 16 312 3.2 8.0 0.00 0.36 0.13 79 1009.7
20260509160304 16 313 6.4 20.9 0.00 0.36 0.13 81 1009.7
20260509155804 16 304 4.8 19.3 0.00 0.36 0.13 79 1009.5
20260509151304 17 310 6.4 14.5 0.00 0.36 0.13 76 1009.5
20260509150304 17 291 8.0 19.3 0.00 0.36 0.13 74 1009.4
20260509144805 18 316 4.8 19.3 0.00 0.36 0.13 73 1009.5
20260509144305 18 310 8.0 16.1 0.00 0.36 0.13 72 1009.4
20260509143806 18 292 4.8 16.1 0.00 0.36 0.13 73 1009.6
20260509143306 17 313 4.8 14.5 0.00 0.36 0.13 73 1009.6
20260509140305 17 313 3.2 9.7 0.00 0.36 0.13 76 1009.6
20260509135806 16 296 4.8 14.5 0.00 0.36 0.13 76 1009.6
20260509135306 17 328 4.8 14.5 0.00 0.36 0.13 73 1009.5
20260509134805 17 318 4.8 19.3 0.00 0.36 0.13 75 1009.2
20260509134305 16 304 8.0 19.3 0.00 0.36 0.13 79 1009.3
20260509133806 17 327 8.0 27.4 0.00 0.36 0.13 75 1009.3
20260509133305 17 332 4.8 16.1 0.00 0.36 0.13 73 1009.3
20260509132806 18 303 4.8 16.1 0.00 0.36 0.13 73 1009.2
20260509131805 18 314 6.4 29.0 0.00 0.36 0.13 71 1009.4